Location: Ahausen
(50.4985°N, 8.2722°E)
Time: 15:09:43
(UTC+00:00)

USA 116 - Pass Details

Date: 18 September 2020
Orbit: 405 x 834 km, 97.9° (Epoch: 18 November)

Event Time Altitude Azimuth Distance (km) Brightness Sun altitude
Rises 18:16:45 0° 15° (NNE) 2,413 7.0 -7.7°
Reaches altitude 10° 18:18:41 10° 18° (NNE) 1,575 6.0 -8.0°
Maximum altitude 18:22:02 73° 103° (ESE) 499 3.3 -8.5°
Drops below altitude 10° 18:25:43 10° 189° (S) 1,731 6.2 -9.1°
Sets 18:27:56 0° 192° (SSW) 2,681 7.2 -9.4°
